NKS113 EDDM-EDDF

Flight info

Callsign NKS113
Flight time 0h 36m
Altitude 26000
Route GIVMI6S GIVMI Y101 ERNAS T161 DEBHI DEBHI1B
Aircraft A21N/M-SDE2E3FGHIRWXY/LB1

Departure

Time 2026-05-07 15:25
Airport Munich Airport (EDDM)

Arrival

Time 2026-05-07 16:02
Airport Frankfurt Main Airport (EDDF)
Time Latitude Longitude Altitude Speed Heading
2026-05-07 15:05 48.35739 11.79255 1486 ft 0 kts 263°
2026-05-07 15:14 48.35740 11.79259 1485 ft 1 kts 263°
2026-05-07 15:14 48.35741 11.79271 1469 ft 1 kts 263°
2026-05-07 15:15 48.35742 11.79282 1482 ft 1 kts 263°
2026-05-07 15:15 48.35743 11.79294 1478 ft 1 kts 263°
2026-05-07 15:15 48.35745 11.79314 1473 ft 2 kts 269°
2026-05-07 15:15 48.35744 11.79337 1471 ft 2 kts 288°
2026-05-07 15:16 48.35739 11.79357 1475 ft 2 kts 303°
2026-05-07 15:16 48.35724 11.79391 1473 ft 2 kts 311°
2026-05-07 15:16 48.35713 11.79407 1473 ft 2 kts 351°
2026-05-07 15:19 48.35714 11.79407 1472 ft 1 kts 352°
2026-05-07 15:19 48.35748 11.79402 1480 ft 9 kts 354°
2026-05-07 15:19 48.35838 11.79413 1479 ft 17 kts 28°
2026-05-07 15:20 48.35950 11.79501 1482 ft 16 kts
2026-05-07 15:20 48.36023 11.79492 1476 ft 10 kts 352°
2026-05-07 15:20 48.36050 11.79486 1483 ft 4 kts 352°
2026-05-07 15:20 48.36092 11.79478 1484 ft 8 kts 353°
2026-05-07 15:21 48.36176 11.79467 1474 ft 15 kts
2026-05-07 15:21 48.36218 11.79541 1485 ft 12 kts 79°
2026-05-07 15:21 48.36237 11.79746 1472 ft 25 kts 82°
2026-05-07 15:21 48.36259 11.80040 1485 ft 32 kts 83°
2026-05-07 15:22 48.36287 11.80399 1483 ft 37 kts 84°
2026-05-07 15:22 48.36317 11.80799 1479 ft 39 kts 84°
2026-05-07 15:22 48.36348 11.81207 1481 ft 39 kts 84°
2026-05-07 15:22 48.36379 11.81614 1475 ft 39 kts 84°
2026-05-07 15:23 48.36395 11.81907 1485 ft 20 kts 95°
2026-05-07 15:23 48.36442 11.82004 1483 ft 9 kts 359°
2026-05-07 15:23 48.36525 11.81988 1475 ft 16 kts 352°
2026-05-07 15:23 48.36658 11.81970 1482 ft 22 kts 355°
2026-05-07 15:24 48.36686 11.81955 1477 ft 0 kts 320°
2026-05-07 15:24 48.36685 11.81928 1485 ft 7 kts 266°
2026-05-07 15:24 48.36667 11.81842 1475 ft 12 kts 262°
2026-05-07 15:24 48.36630 11.81340 1486 ft 91 kts 263°
2026-05-07 15:25 48.36526 11.79995 1476 ft 160 kts 264°
2026-05-07 15:25 48.36364 11.78136 1780 ft 193 kts 264°
2026-05-07 15:25 48.36171 11.76163 2852 ft 186 kts 263°
2026-05-07 15:25 48.35991 11.74310 3944 ft 178 kts 264°
2026-05-07 15:26 48.35826 11.72492 4961 ft 170 kts 264°
2026-05-07 15:26 48.35712 11.70657 5591 ft 185 kts 267°
2026-05-07 15:26 48.35737 11.68631 6137 ft 203 kts 280°
2026-05-07 15:26 48.36241 11.66531 6590 ft 227 kts 301°
2026-05-07 15:27 48.37153 11.64460 7037 ft 253 kts 302°
2026-05-07 15:27 48.38125 11.62161 6993 ft 263 kts 300°
2026-05-07 15:27 48.39124 11.59713 7249 ft 284 kts 300°
2026-05-07 15:27 48.40152 11.57166 8239 ft 286 kts 300°
2026-05-07 15:28 48.41197 11.54581 9224 ft 291 kts 300°
2026-05-07 15:28 48.42260 11.51950 10180 ft 296 kts 299°
2026-05-07 15:28 48.43334 11.49295 11094 ft 299 kts 299°
2026-05-07 15:28 48.44427 11.46592 11971 ft 304 kts 300°
2026-05-07 15:29 48.45812 11.44161 12841 ft 313 kts 320°
2026-05-07 15:29 48.47769 11.42636 13689 ft 324 kts 342°
2026-05-07 15:29 48.49981 11.41986 14461 ft 330 kts 347°
2026-05-07 15:29 48.52248 11.41395 15295 ft 332 kts 347°
2026-05-07 15:30 48.54531 11.40792 16093 ft 335 kts 347°
2026-05-07 15:30 48.56838 11.40167 16883 ft 338 kts 346°
2026-05-07 15:30 48.59165 11.39527 17669 ft 341 kts 346°
2026-05-07 15:30 48.61503 11.38880 18419 ft 345 kts 346°
2026-05-07 15:31 48.63872 11.38223 19087 ft 348 kts 346°
2026-05-07 15:31 48.66261 11.37560 19738 ft 351 kts 346°
2026-05-07 15:31 48.67848 11.37087 20178 ft 351 kts 343°
2026-05-07 15:31 48.70735 11.35566 20975 ft 351 kts 332°
2026-05-07 15:32 48.72855 11.33750 21602 ft 352 kts 323°
2026-05-07 15:32 48.74888 11.31656 22226 ft 354 kts 323°
2026-05-07 15:32 48.76947 11.29557 22869 ft 357 kts 324°
2026-05-07 15:32 48.79019 11.27456 23474 ft 360 kts 324°
2026-05-07 15:33 48.81110 11.25337 23883 ft 364 kts 324°
2026-05-07 15:33 48.83196 11.23174 24001 ft 363 kts 322°
2026-05-07 15:33 48.85201 11.20823 24021 ft 363 kts 318°
2026-05-07 15:33 48.87097 11.18305 24024 ft 362 kts 315°
2026-05-07 15:34 48.88954 11.15704 24023 ft 363 kts 315°
2026-05-07 15:34 48.90790 11.13143 24026 ft 362 kts 316°
2026-05-07 15:34 48.92670 11.10523 24027 ft 362 kts 316°
2026-05-07 15:34 48.94525 11.07936 24034 ft 363 kts 316°
2026-05-07 15:35 48.96347 11.05395 24033 ft 352 kts 316°
2026-05-07 15:35 48.98105 11.02940 24036 ft 334 kts 315°
2026-05-07 15:35 48.99798 11.00568 24044 ft 333 kts 315°
2026-05-07 15:35 49.01517 10.98152 24046 ft 337 kts 315°
2026-05-07 15:36 49.03242 10.95727 24049 ft 337 kts 315°
2026-05-07 15:36 49.04959 10.93313 24055 ft 336 kts 315°
2026-05-07 15:36 49.06677 10.90896 24054 ft 336 kts 315°
2026-05-07 15:36 49.08396 10.88474 24053 ft 337 kts 315°
2026-05-07 15:37 49.10069 10.86115 24060 ft 337 kts 315°
2026-05-07 15:37 49.11790 10.83682 24058 ft 337 kts 315°
2026-05-07 15:37 49.13510 10.81248 24055 ft 337 kts 315°
2026-05-07 15:37 49.15228 10.78815 24056 ft 338 kts 315°
2026-05-07 15:38 49.16950 10.76374 24051 ft 338 kts 315°
2026-05-07 15:38 49.18677 10.73923 24052 ft 338 kts 315°
2026-05-07 15:38 49.20398 10.71466 24050 ft 339 kts 314°
2026-05-07 15:38 49.22057 10.68915 24046 ft 338 kts 313°
2026-05-07 15:39 49.23680 10.66315 24045 ft 339 kts 312°
2026-05-07 15:39 49.25309 10.63696 24045 ft 339 kts 313°
2026-05-07 15:39 49.26941 10.61089 24046 ft 340 kts 313°
2026-05-07 15:39 49.28565 10.58510 24045 ft 340 kts 313°
2026-05-07 15:40 49.30230 10.55874 24044 ft 340 kts 313°
2026-05-07 15:40 49.31877 10.53270 24044 ft 341 kts 313°
2026-05-07 15:40 49.33528 10.50658 24049 ft 341 kts 313°
2026-05-07 15:40 49.35177 10.48047 24048 ft 341 kts 313°
2026-05-07 15:41 49.36709 10.45271 24040 ft 341 kts 305°
2026-05-07 15:41 49.38049 10.42319 24032 ft 341 kts 304°
2026-05-07 15:41 49.39410 10.39326 23870 ft 343 kts 304°
2026-05-07 15:41 49.40775 10.36337 23632 ft 340 kts 304°
2026-05-07 15:42 49.42130 10.33374 23358 ft 338 kts 304°
2026-05-07 15:42 49.43477 10.30423 23084 ft 336 kts 304°
2026-05-07 15:42 49.44384 10.28433 22898 ft 336 kts 304°
2026-05-07 15:42 49.45705 10.25530 22625 ft 335 kts 304°
2026-05-07 15:43 49.47036 10.22602 22354 ft 333 kts 304°
2026-05-07 15:43 49.48361 10.19684 22087 ft 332 kts 304°
2026-05-07 15:43 49.49681 10.16774 21819 ft 331 kts 304°
2026-05-07 15:43 49.50993 10.13876 21558 ft 330 kts 304°
2026-05-07 15:44 49.52297 10.10995 21303 ft 329 kts 304°
2026-05-07 15:44 49.53603 10.08105 21050 ft 327 kts 304°
2026-05-07 15:44 49.54897 10.05239 20792 ft 326 kts 304°
2026-05-07 15:44 49.56167 10.02422 20457 ft 326 kts 304°
2026-05-07 15:45 49.57458 9.99556 20061 ft 323 kts 304°
2026-05-07 15:45 49.58730 9.96727 19653 ft 320 kts 303°
2026-05-07 15:45 49.59988 9.93928 19270 ft 316 kts 303°
2026-05-07 15:45 49.61233 9.91155 18882 ft 312 kts 303°
2026-05-07 15:46 49.63675 9.85705 18094 ft 305 kts 303°
2026-05-07 15:46 49.64867 9.83041 17716 ft 300 kts 303°
2026-05-07 15:46 49.66043 9.80410 17349 ft 295 kts 303°
2026-05-07 15:47 49.67195 9.77830 16996 ft 290 kts 303°
2026-05-07 15:47 49.68332 9.75281 16644 ft 286 kts 303°
2026-05-07 15:47 49.69452 9.72768 16299 ft 282 kts 303°
2026-05-07 15:47 49.70561 9.70279 15952 ft 280 kts 303°
2026-05-07 15:48 49.71661 9.67803 15610 ft 282 kts 304°
2026-05-07 15:48 49.72767 9.65313 15275 ft 279 kts 304°
2026-05-07 15:48 49.73866 9.62857 14935 ft 277 kts 307°
2026-05-07 15:48 49.75116 9.60546 14379 ft 284 kts 310°
2026-05-07 15:49 49.76439 9.58202 13697 ft 294 kts 311°
2026-05-07 15:49 49.77814 9.55783 12889 ft 304 kts 311°
2026-05-07 15:49 49.79202 9.53338 12488 ft 297 kts 311°
2026-05-07 15:49 49.80540 9.50971 12110 ft 290 kts 310°
2026-05-07 15:50 49.81858 9.48631 11727 ft 287 kts 310°
2026-05-07 15:50 49.83166 9.46302 11287 ft 285 kts 310°
2026-05-07 15:50 49.84464 9.43987 10858 ft 283 kts 310°
2026-05-07 15:50 49.85752 9.41688 10431 ft 282 kts 310°
2026-05-07 15:51 49.87032 9.39400 10011 ft 280 kts 310°
2026-05-07 15:51 49.88306 9.37123 9576 ft 279 kts 310°
2026-05-07 15:51 49.89574 9.34854 9134 ft 276 kts 310°
2026-05-07 15:51 49.90812 9.32636 8712 ft 274 kts 310°
2026-05-07 15:52 49.92051 9.30414 8290 ft 272 kts 310°
2026-05-07 15:52 49.93281 9.28210 7906 ft 269 kts 310°
2026-05-07 15:52 49.94513 9.25999 7383 ft 272 kts 310°
2026-05-07 15:52 49.95745 9.23784 7063 ft 267 kts 310°
2026-05-07 15:53 49.96955 9.21606 6725 ft 264 kts 310°
2026-05-07 15:53 49.98008 9.19710 6388 ft 263 kts 310°
2026-05-07 15:53 49.99202 9.17561 5990 ft 261 kts 310°
2026-05-07 15:53 50.00373 9.15449 5759 ft 253 kts 310°
2026-05-07 15:54 50.01486 9.13442 5620 ft 237 kts 310°
2026-05-07 15:54 50.02541 9.11539 5431 ft 228 kts 310°
2026-05-07 15:54 50.03568 9.09681 5076 ft 227 kts 310°
2026-05-07 15:54 50.04598 9.07817 4702 ft 225 kts 310°
2026-05-07 15:55 50.05607 9.05987 4618 ft 227 kts 310°
2026-05-07 15:55 50.06640 9.04115 4558 ft 226 kts 310°
2026-05-07 15:55 50.07660 9.02268 4475 ft 226 kts 310°
2026-05-07 15:55 50.08674 9.00430 4417 ft 225 kts 310°
2026-05-07 15:56 50.09699 8.98544 4341 ft 225 kts 306°
2026-05-07 15:56 50.10372 8.96355 4246 ft 226 kts 290°
2026-05-07 15:56 50.10875 8.94087 4130 ft 217 kts 289°
2026-05-07 15:56 50.11271 8.91849 4043 ft 217 kts 277°
2026-05-07 15:57 50.11233 8.89848 3989 ft 217 kts 261°
2026-05-07 15:57 50.10867 8.87612 3991 ft 219 kts 253°
2026-05-07 15:57 50.10360 8.85364 3986 ft 219 kts 251°
2026-05-07 15:57 50.09831 8.83138 3841 ft 211 kts 251°
2026-05-07 15:58 50.09328 8.81014 3487 ft 207 kts 251°
2026-05-07 15:58 50.08827 8.78902 3186 ft 208 kts 251°
2026-05-07 15:58 50.08325 8.76797 2870 ft 208 kts 251°
2026-05-07 15:58 50.07822 8.74678 2582 ft 208 kts 251°
2026-05-07 15:59 50.07333 8.72622 2302 ft 201 kts 251°
2026-05-07 15:59 50.06852 8.70603 2032 ft 193 kts 251°
2026-05-07 15:59 50.06402 8.68708 1777 ft 185 kts 251°
2026-05-07 15:59 50.05965 8.66875 1520 ft 174 kts 251°
2026-05-07 16:00 50.05554 8.65152 1288 ft 162 kts 251°
2026-05-07 16:00 50.05182 8.63582 1067 ft 151 kts 251°
2026-05-07 16:00 50.04831 8.62099 853 ft 142 kts 251°
2026-05-07 16:00 50.04501 8.60692 660 ft 137 kts 250°
2026-05-07 16:01 50.04153 8.59272 483 ft 143 kts 249°
2026-05-07 16:01 50.03807 8.57843 370 ft 139 kts 250°
2026-05-07 16:01 50.03526 8.56645 356 ft 91 kts 250°
2026-05-07 16:01 50.03349 8.55907 352 ft 62 kts 250°
2026-05-07 16:02 50.03178 8.55504 354 ft 18 kts 223°
2026-05-07 16:02 50.03095 8.55436 345 ft 1 kts 160°
2026-05-07 16:02 50.03095 8.55437 346 ft 0 kts 159°